Time,TemperatureF,DewpointF,PressureIn,WindDirection,WindDirectionDegrees,WindSpeedMPH,WindSpeedGustMPH,Humidity,HourlyPrecipIn,Conditions,Clouds,dailyrainin,SoftwareType,DateUTC
2015-08-30 00:00:00,73.2,72.0,30.14,SSW,202,0.0,4.0,95,0.71,,,0.74,weatherlink.com 1.10,2015-08-30 04:00:00,
2015-08-30 00:06:00,72.6,71.1,30.13,West,266,0.0,4.0,95,0.11,,,0.00,Wunderground v.1.15,2015-08-30 04:06:00,
2015-08-30 00:11:00,72.1,70.6,30.12,WSW,241,1.0,1.0,95,0.10,,,0.01,Wunderground v.1.15,2015-08-30 04:11:00,
2015-08-30 00:17:00,71.8,70.3,30.11,ESE,109,0.0,1.0,95,0.22,,,0.03,Wunderground v.1.15,2015-08-30 04:17:00,
2015-08-30 00:23:00,71.6,70.1,30.11,SW,221,0.0,1.0,95,0.07,,,0.03,Wunderground v.1.15,2015-08-30 04:23:00,
2015-08-30 00:28:00,71.5,70.3,30.11,South,171,0.0,1.0,96,0.05,,,0.04,Wunderground v.1.15,2015-08-30 04:28:00,
2015-08-30 00:34:00,71.3,70.1,30.10,ESE,121,0.0,0.0,96,0.13,,,0.05,Wunderground v.1.15,2015-08-30 04:34:00,
2015-08-30 00:39:00,71.3,70.1,30.10,SE,144,0.0,0.0,96,0.13,,,0.06,Wunderground v.1.15,2015-08-30 04:39:00,
2015-08-30 00:45:00,71.1,69.9,30.10,SSE,152,0.0,1.0,96,0.11,,,0.07,Wunderground v.1.15,2015-08-30 04:45:00,
2015-08-30 00:50:00,71.1,69.9,30.10,ESE,105,0.0,0.0,96,0.15,,,0.10,Wunderground v.1.15,2015-08-30 04:50:00,
2015-08-30 00:55:00,70.9,69.7,30.10,ESE,117,0.0,0.0,96,0.13,,,0.11,Wunderground v.1.15,2015-08-30 04:55:00,
2015-08-30 01:01:00,70.9,69.7,30.09,SE,127,0.0,0.0,96,0.15,,,0.12,Wunderground v.1.15,2015-08-30 05:01:00,
2015-08-30 01:05:00,70.9,69.7,30.10,SSE,158,0.0,0.0,96,0.11,,,0.13,Wunderground v.1.15,2015-08-30 05:05:00,
2015-08-30 01:10:00,71.0,69.8,30.10,South,182,0.0,0.0,96,0.07,,,0.13,Wunderground v.1.15,2015-08-30 05:10:00,
2015-08-30 01:16:00,71.2,70.3,30.10,SE,125,0.0,0.0,97,0.05,,,0.14,Wunderground v.1.15,2015-08-30 05:16:00,
2015-08-30 01:21:00,71.4,70.5,30.10,SE,138,0.0,1.0,97,0.05,,,0.14,Wunderground v.1.15,2015-08-30 05:21:00,
2015-08-30 01:28:00,71.9,71.0,30.09,SSW,198,0.0,2.0,97,0.11,,,0.15,weatherlink.com 1.10,2015-08-30 05:28:00,
2015-08-30 01:36:00,72.2,71.3,30.09,SE,125,0.0,0.0,97,0.05,,,0.15,Wunderground v.1.15,2015-08-30 05:36:00,
2015-08-30 01:43:00,72.6,72.0,30.09,SE,130,1.0,2.0,97,0.08,,,0.15,weatherlink.com 1.10,2015-08-30 05:43:00,
2015-08-30 01:57:00,73.3,72.4,30.07,SE,127,0.0,0.0,97,0.09,,,0.17,Wunderground v.1.15,2015-08-30 05:57:00,
2015-08-30 02:02:00,73.6,72.7,30.06,ESE,105,0.0,4.0,97,0.09,,,0.17,Wunderground v.1.15,2015-08-30 06:02:00,
2015-08-30 02:07:00,73.9,73.0,30.05,East,96,0.0,4.0,97,0.08,,,0.18,Wunderground v.1.15,2015-08-30 06:07:00,
2015-08-30 02:12:00,74.1,73.2,30.05,SSE,159,0.0,0.0,97,0.08,,,0.18,Wunderground v.1.15,2015-08-30 06:12:00,
2015-08-30 02:17:00,74.2,73.3,30.04,ESE,112,0.0,2.0,97,0.05,,,0.18,Wunderground v.1.15,2015-08-30 06:17:00,
2015-08-30 02:27:00,74.6,73.7,30.03,SE,126,0.0,2.0,97,0.00,,,0.18,Wunderground v.1.15,2015-08-30 06:27:00,
2015-08-30 02:32:00,74.6,73.7,30.03,NE,51,0.0,0.0,97,0.00,,,0.18,Wunderground v.1.15,2015-08-30 06:32:00,
2015-08-30 02:37:00,74.6,73.7,30.02,ESE,118,0.0,1.0,97,0.00,,,0.18,Wunderground v.1.15,2015-08-30 06:37:00,
2015-08-30 02:42:00,74.7,73.8,30.02,ESE,108,0.0,2.0,97,0.00,,,0.18,Wunderground v.1.15,2015-08-30 06:42:00,
2015-08-30 02:47:00,74.8,73.9,30.02,SE,131,0.0,2.0,97,0.00,,,0.18,Wunderground v.1.15,2015-08-30 06:47:00,
2015-08-30 02:52:00,75.0,74.1,30.02,NW,312,0.0,2.0,97,0.00,,,0.18,Wunderground v.1.15,2015-08-30 06:52:00,
2015-08-30 02:57:00,75.1,74.2,30.02,ENE,60,2.0,2.0,97,0.00,,,0.18,Wunderground v.1.15,2015-08-30 06:57:00,
2015-08-30 03:02:00,75.1,73.9,30.01,ESE,107,2.0,6.0,96,0.00,,,0.18,Wunderground v.1.15,2015-08-30 07:02:00,
2015-08-30 03:06:00,74.9,73.7,30.01,SSE,154,2.0,6.0,96,0.00,,,0.18,Wunderground v.1.15,2015-08-30 07:06:00,
2015-08-30 03:09:00,74.8,73.6,30.01,North,6,0.0,6.0,96,0.00,,,0.18,Wunderground v.1.15,2015-08-30 07:09:00,
2015-08-30 03:14:00,74.7,73.5,30.01,ESE,114,0.0,2.0,96,0.00,,,0.18,Wunderground v.1.15,2015-08-30 07:14:00,
2015-08-30 03:19:00,74.5,73.3,30.00,SSE,148,1.0,2.0,96,0.00,,,0.18,Wunderground v.1.15,2015-08-30 07:19:00,
2015-08-30 03:24:00,74.4,73.2,30.00,SSE,150,0.0,2.0,96,0.00,,,0.18,Wunderground v.1.15,2015-08-30 07:24:00,
2015-08-30 03:29:00,74.4,73.2,30.00,ESE,115,0.0,2.0,96,0.00,,,0.18,Wunderground v.1.15,2015-08-30 07:29:00,
2015-08-30 03:34:00,74.4,73.2,30.00,SSE,168,0.0,2.0,96,0.00,,,0.18,Wunderground v.1.15,2015-08-30 07:34:00,
2015-08-30 03:39:00,74.5,73.3,30.00,East,95,0.0,2.0,96,0.00,,,0.18,Wunderground v.1.15,2015-08-30 07:39:00,
2015-08-30 03:44:00,74.6,73.4,30.00,ENE,72,0.0,3.0,96,0.00,,,0.18,Wunderground v.1.15,2015-08-30 07:44:00,
2015-08-30 03:49:00,74.6,73.4,30.00,ESE,112,1.0,3.0,96,0.00,,,0.18,Wunderground v.1.15,2015-08-30 07:49:00,
2015-08-30 03:54:00,74.8,73.6,30.00,SW,224,1.0,3.0,96,0.00,,,0.18,Wunderground v.1.15,2015-08-30 07:54:00,
2015-08-30 03:59:00,75.2,74.0,30.00,East,87,0.0,4.0,96,0.00,,,0.18,Wunderground v.1.15,2015-08-30 07:59:00,
2015-08-30 04:04:00,75.6,74.4,30.00,ESE,114,4.0,5.0,96,0.00,,,0.18,Wunderground v.1.15,2015-08-30 08:04:00,
2015-08-30 04:09:00,76.2,74.7,30.00,East,101,2.0,9.0,95,0.00,,,0.18,Wunderground v.1.15,2015-08-30 08:09:00,
2015-08-30 04:14:00,76.5,75.0,30.00,East,97,4.0,6.0,95,0.00,,,0.18,Wunderground v.1.15,2015-08-30 08:14:00,
2015-08-30 04:19:00,76.8,75.3,30.00,East,95,4.0,4.0,95,0.00,,,0.19,Wunderground v.1.15,2015-08-30 08:19:00,
2015-08-30 04:24:00,77.1,75.6,30.00,ENE,77,1.0,9.0,95,0.00,,,0.19,Wunderground v.1.15,2015-08-30 08:24:00,
2015-08-30 04:29:00,77.3,75.8,30.00,ENE,77,1.0,2.0,95,0.00,,,0.19,Wunderground v.1.15,2015-08-30 08:29:00,
2015-08-30 04:34:00,77.3,75.8,30.00,East,79,1.0,5.0,95,0.00,,,0.19,Wunderground v.1.15,2015-08-30 08:34:00,
2015-08-30 04:40:00,77.3,75.8,30.00,ENE,76,4.0,4.0,95,0.00,,,0.19,Wunderground v.1.15,2015-08-30 08:40:00,
2015-08-30 04:45:00,77.3,75.8,30.00,SE,143,1.0,4.0,95,0.00,,,0.19,Wunderground v.1.15,2015-08-30 08:45:00,
2015-08-30 04:50:00,77.3,75.8,30.00,South,186,0.0,2.0,95,0.00,,,0.21,Wunderground v.1.15,2015-08-30 08:50:00,
2015-08-30 04:55:00,77.3,75.8,30.00,SE,127,3.0,6.0,95,0.00,,,0.21,Wunderground v.1.15,2015-08-30 08:55:00,
2015-08-30 05:00:00,77.3,75.8,30.01,ESE,108,1.0,1.0,95,0.00,,,0.21,Wunderground v.1.15,2015-08-30 09:00:00,
2015-08-30 05:13:00,77.5,76.0,30.01,SE,139,3.0,4.0,94,0.03,,,0.21,weatherlink.com 1.10,2015-08-30 09:13:00,
2015-08-30 05:28:00,77.3,76.0,30.02,WSW,240,0.0,1.0,95,0.02,,,0.21,weatherlink.com 1.10,2015-08-30 09:28:00,
2015-08-30 05:38:00,77.0,75.5,30.02,WSW,240,0.0,0.0,95,0.00,,,0.21,Wunderground v.1.15,2015-08-30 09:38:00,
2015-08-30 05:43:00,76.9,75.4,30.02,WSW,238,0.0,1.0,95,0.00,,,0.21,Wunderground v.1.15,2015-08-30 09:43:00,
2015-08-30 05:58:00,76.8,76.0,30.03,WSW,238,0.0,0.0,96,0.00,,,0.21,weatherlink.com 1.10,2015-08-30 09:58:00,
2015-08-30 06:10:00,76.6,75.4,30.03,WSW,238,0.0,0.0,96,0.00,,,0.21,Wunderground v.1.15,2015-08-30 10:10:00,
2015-08-30 06:15:00,76.5,75.3,30.02,WSW,238,0.0,0.0,96,0.00,,,0.21,Wunderground v.1.15,2015-08-30 10:15:00,
2015-08-30 06:20:00,76.4,75.2,30.02,WSW,238,0.0,0.0,96,0.00,,,0.21,Wunderground v.1.15,2015-08-30 10:20:00,
2015-08-30 06:25:00,76.2,75.0,30.03,WSW,238,0.0,0.0,96,0.00,,,0.21,Wunderground v.1.15,2015-08-30 10:25:00,
2015-08-30 06:30:00,76.1,74.9,30.03,WSW,238,0.0,0.0,96,0.00,,,0.21,Wunderground v.1.15,2015-08-30 10:30:00,
2015-08-30 06:35:00,76.1,75.2,30.02,WSW,238,0.0,0.0,97,0.00,,,0.21,Wunderground v.1.15,2015-08-30 10:35:00,
2015-08-30 06:40:00,76.0,75.1,30.02,WSW,238,0.0,0.0,97,0.00,,,0.21,Wunderground v.1.15,2015-08-30 10:40:00,
2015-08-30 06:45:00,76.0,75.1,30.02,WSW,238,0.0,1.0,97,0.00,,,0.21,Wunderground v.1.15,2015-08-30 10:45:00,
2015-08-30 06:50:00,75.9,75.0,30.02,SE,124,0.0,0.0,97,0.00,,,0.21,Wunderground v.1.15,2015-08-30 10:50:00,
2015-08-30 06:55:00,75.7,74.8,30.03,SE,124,0.0,0.0,97,0.00,,,0.21,Wunderground v.1.15,2015-08-30 10:55:00,
2015-08-30 07:00:00,75.7,74.8,30.02,SE,124,0.0,0.0,97,0.00,,,0.21,Wunderground v.1.15,2015-08-30 11:00:00,
2015-08-30 07:06:00,75.6,74.7,30.02,SE,124,0.0,0.0,97,0.00,,,0.21,Wunderground v.1.15,2015-08-30 11:06:00,
2015-08-30 07:11:00,75.5,74.6,30.02,ESE,123,0.0,0.0,97,0.00,,,0.21,Wunderground v.1.15,2015-08-30 11:11:00,
2015-08-30 07:16:00,75.5,74.6,30.02,SSE,155,0.0,0.0,97,0.00,,,0.21,Wunderground v.1.15,2015-08-30 11:16:00,
2015-08-30 07:21:00,75.5,74.6,30.02,SE,146,0.0,0.0,97,0.00,,,0.21,Wunderground v.1.15,2015-08-30 11:21:00,
2015-08-30 07:26:00,75.6,74.7,30.02,SSE,159,0.0,0.0,97,0.00,,,0.21,Wunderground v.1.15,2015-08-30 11:26:00,
2015-08-30 07:31:00,75.8,74.9,30.03,ESE,103,1.0,1.0,97,0.00,,,0.22,Wunderground v.1.15,2015-08-30 11:31:00,
2015-08-30 07:48:00,76.7,75.8,30.03,SE,146,0.0,0.0,97,0.00,,,0.22,Wunderground v.1.15,2015-08-30 11:48:00,
2015-08-30 07:53:00,76.9,76.0,30.03,SW,221,0.0,1.0,97,0.00,,,0.22,Wunderground v.1.15,2015-08-30 11:53:00,
2015-08-30 07:59:00,77.2,76.3,30.04,ENE,77,0.0,0.0,97,0.00,,,0.22,Wunderground v.1.15,2015-08-30 11:59:00,
2015-08-30 08:04:00,77.5,76.6,30.04,SW,234,0.0,1.0,97,0.00,,,0.22,Wunderground v.1.15,2015-08-30 12:04:00,
2015-08-30 08:09:00,77.7,76.8,30.04,SSE,150,0.0,1.0,97,0.00,,,0.22,Wunderground v.1.15,2015-08-30 12:09:00,
2015-08-30 08:14:00,78.0,77.1,30.03,SE,144,0.0,1.0,97,0.00,,,0.22,Wunderground v.1.15,2015-08-30 12:14:00,
2015-08-30 08:17:00,78.1,77.2,30.03,SE,124,0.0,1.0,97,0.00,,,0.22,Wunderground v.1.15,2015-08-30 12:17:00,
2015-08-30 08:22:00,78.4,77.5,30.03,SE,134,0.0,1.0,97,0.00,,,0.22,Wunderground v.1.15,2015-08-30 12:22:00,
2015-08-30 08:27:00,78.6,77.4,30.03,South,174,0.0,2.0,96,0.00,,,0.22,Wunderground v.1.15,2015-08-30 12:27:00,
2015-08-30 08:32:00,78.9,77.7,30.03,SSE,158,0.0,1.0,96,0.00,,,0.22,Wunderground v.1.15,2015-08-30 12:32:00,
2015-08-30 08:37:00,79.2,78.0,30.03,SE,139,0.0,1.0,96,0.00,,,0.22,Wunderground v.1.15,2015-08-30 12:37:00,
2015-08-30 08:42:00,79.5,78.3,30.03,SE,139,0.0,1.0,96,0.00,,,0.22,Wunderground v.1.15,2015-08-30 12:42:00,
2015-08-30 08:47:00,79.7,78.5,30.03,SSW,209,0.0,1.0,96,0.00,,,0.22,Wunderground v.1.15,2015-08-30 12:47:00,
2015-08-30 08:52:00,80.0,78.8,30.03,East,87,0.0,2.0,96,0.00,,,0.22,Wunderground v.1.15,2015-08-30 12:52:00,
2015-08-30 08:57:00,80.3,79.1,30.03,ENE,78,2.0,2.0,96,0.00,,,0.22,Wunderground v.1.15,2015-08-30 12:57:00,
2015-08-30 09:02:00,80.6,79.0,30.02,SW,230,0.0,2.0,95,0.00,,,0.22,Wunderground v.1.15,2015-08-30 13:02:00,
2015-08-30 09:07:00,81.2,79.6,30.02,NE,56,0.0,2.0,95,0.00,,,0.22,Wunderground v.1.15,2015-08-30 13:07:00,
2015-08-30 09:12:00,81.9,80.0,30.02,SSW,203,0.0,1.0,94,0.00,,,0.22,Wunderground v.1.15,2015-08-30 13:12:00,
2015-08-30 09:17:00,82.4,80.5,30.02,WSW,240,0.0,1.0,94,0.00,,,0.22,Wunderground v.1.15,2015-08-30 13:17:00,
2015-08-30 09:22:00,82.4,79.8,30.03,SE,135,0.0,0.0,92,0.00,,,0.22,Wunderground v.1.15,2015-08-30 13:22:00,
2015-08-30 09:27:00,82.7,80.1,30.03,ESE,102,0.0,1.0,92,0.00,,,0.22,Wunderground v.1.15,2015-08-30 13:27:00,
2015-08-30 09:32:00,83.2,80.3,30.03,ESE,110,2.0,2.0,91,0.00,,,0.22,Wunderground v.1.15,2015-08-30 13:32:00,
2015-08-30 09:37:00,82.9,79.7,30.03,WSW,243,0.0,5.0,90,0.00,,,0.22,Wunderground v.1.15,2015-08-30 13:37:00,
2015-08-30 09:42:00,83.2,80.3,30.04,East,86,0.0,1.0,91,0.00,,,0.22,Wunderground v.1.15,2015-08-30 13:42:00,
2015-08-30 09:47:00,83.2,80.3,30.03,East,91,0.0,1.0,91,0.00,,,0.22,Wunderground v.1.15,2015-08-30 13:47:00,
2015-08-30 09:52:00,83.3,80.4,30.03,East,91,0.0,2.0,91,0.00,,,0.22,Wunderground v.1.15,2015-08-30 13:52:00,
2015-08-30 09:57:00,83.2,80.3,30.04,South,187,0.0,2.0,91,0.00,,,0.22,Wunderground v.1.15,2015-08-30 13:57:00,
2015-08-30 10:02:00,82.9,79.7,30.04,NE,55,1.0,5.0,90,0.00,,,0.22,Wunderground v.1.15,2015-08-30 14:02:00,
2015-08-30 10:07:00,82.9,80.0,30.04,SW,224,0.0,5.0,91,0.00,,,0.22,Wunderground v.1.15,2015-08-30 14:07:00,
2015-08-30 10:12:00,82.9,80.0,30.04,ENE,65,0.0,0.0,91,0.00,,,0.22,Wunderground v.1.15,2015-08-30 14:12:00,
2015-08-30 10:17:00,83.0,80.1,30.05,ENE,58,0.0,0.0,91,0.00,,,0.22,Wunderground v.1.15,2015-08-30 14:17:00,
2015-08-30 10:32:00,80.7,77.0,30.07,SE,131,6.0,10.0,87,0.11,,,0.33,weatherlink.com 1.10,2015-08-30 14:32:00,
2015-08-30 10:47:00,75.8,74.0,30.06,SW,220,0.0,5.0,94,0.61,,,0.83,weatherlink.com 1.10,2015-08-30 14:47:00,
2015-08-30 11:02:00,76.0,75.0,30.05,WSW,245,0.0,0.0,96,0.69,,,0.91,weatherlink.com 1.10,2015-08-30 15:02:00,
2015-08-30 11:13:00,76.6,75.7,30.05,WSW,249,0.0,0.0,97,0.00,,,0.91,Wunderground v.1.15,2015-08-30 15:13:00,
2015-08-30 11:18:00,76.8,75.9,30.05,WSW,249,0.0,0.0,97,0.00,,,0.91,Wunderground v.1.15,2015-08-30 15:18:00,
2015-08-30 11:23:00,77.5,76.3,30.05,WSW,249,0.0,0.0,96,0.00,,,0.91,Wunderground v.1.15,2015-08-30 15:23:00,
2015-08-30 11:28:00,77.4,75.9,30.05,West,268,0.0,0.0,95,0.00,,,0.91,Wunderground v.1.15,2015-08-30 15:28:00,
2015-08-30 11:34:00,77.7,76.0,30.06,West,261,0.0,0.0,95,0.46,,,0.91,weatherlink.com 1.10,2015-08-30 15:34:00,
2015-08-30 11:49:00,79.2,77.0,30.07,WSW,243,0.0,1.0,94,0.03,,,0.91,weatherlink.com 1.10,2015-08-30 15:49:00,
2015-08-30 11:54:00,79.7,77.5,30.07,SW,225,0.0,0.0,93,0.00,,,0.91,Wunderground v.1.15,2015-08-30 15:54:00,
2015-08-30 11:59:00,80.2,78.0,30.07,West,264,0.0,0.0,93,0.00,,,0.91,Wunderground v.1.15,2015-08-30 15:59:00,
2015-08-30 12:04:00,81.4,79.2,30.07,WSW,240,0.0,2.0,93,0.00,,,0.91,Wunderground v.1.15,2015-08-30 16:04:00,
2015-08-30 12:09:00,81.5,78.3,30.07,WSW,244,0.0,2.0,90,0.00,,,0.91,Wunderground v.1.15,2015-08-30 16:09:00,
2015-08-30 12:14:00,81.8,78.9,30.07,SW,229,0.0,0.0,91,0.00,,,0.91,Wunderground v.1.15,2015-08-30 16:14:00,
2015-08-30 12:19:00,82.3,79.1,30.06,West,265,0.0,0.0,90,0.00,,,0.91,Wunderground v.1.15,2015-08-30 16:19:00,
2015-08-30 12:24:00,82.9,79.7,30.05,South,171,0.0,2.0,90,0.00,,,0.91,Wunderground v.1.15,2015-08-30 16:24:00,
2015-08-30 12:29:00,83.4,79.1,30.05,East,79,0.0,3.0,87,0.00,,,0.91,Wunderground v.1.15,2015-08-30 16:29:00,
2015-08-30 12:34:00,84.1,79.5,30.05,WSW,244,0.0,0.0,86,0.00,,,0.91,Wunderground v.1.15,2015-08-30 16:34:00,
2015-08-30 12:39:00,85.2,79.8,30.04,NW,308,0.0,0.0,84,0.00,,,0.91,Wunderground v.1.15,2015-08-30 16:39:00,
2015-08-30 12:44:00,85.5,79.7,30.04,SW,223,0.0,3.0,83,0.00,,,0.91,Wunderground v.1.15,2015-08-30 16:44:00,
2015-08-30 12:49:00,85.3,79.5,30.04,WSW,258,0.0,1.0,83,0.00,,,0.91,Wunderground v.1.15,2015-08-30 16:49:00,
2015-08-30 12:54:00,86.2,80.4,30.03,East,88,0.0,1.0,83,0.00,,,0.91,Wunderground v.1.15,2015-08-30 16:54:00,
2015-08-30 12:59:00,86.8,79.9,30.04,West,275,0.0,0.0,80,0.00,,,0.91,Wunderground v.1.15,2015-08-30 16:59:00,
2015-08-30 13:04:00,86.7,79.4,30.04,SE,126,1.0,2.0,79,0.00,,,0.91,Wunderground v.1.15,2015-08-30 17:04:00,
2015-08-30 13:09:00,87.1,80.2,30.04,SW,220,0.0,0.0,80,0.00,,,0.91,Wunderground v.1.15,2015-08-30 17:09:00,
2015-08-30 13:14:00,87.4,80.1,30.04,SSE,155,0.0,2.0,79,0.00,,,0.91,Wunderground v.1.15,2015-08-30 17:14:00,
2015-08-30 13:19:00,87.8,79.7,30.04,WSW,246,1.0,1.0,77,0.00,,,0.91,Wunderground v.1.15,2015-08-30 17:19:00,
2015-08-30 13:25:00,87.5,79.4,30.04,South,174,2.0,3.0,77,0.00,,,0.91,Wunderground v.1.15,2015-08-30 17:25:00,
2015-08-30 13:30:00,87.6,79.5,30.03,SSE,150,2.0,2.0,77,0.00,,,0.91,Wunderground v.1.15,2015-08-30 17:30:00,
2015-08-30 13:35:00,87.9,80.2,30.03,SSE,161,0.0,3.0,78,0.00,,,0.91,Wunderground v.1.15,2015-08-30 17:35:00,
2015-08-30 13:40:00,88.1,79.6,30.03,WSW,243,0.0,0.0,76,0.00,,,0.91,Wunderground v.1.15,2015-08-30 17:40:00,
2015-08-30 13:50:00,88.6,80.9,30.03,West,259,1.0,1.0,78,0.00,,,0.91,Wunderground v.1.15,2015-08-30 17:50:00,
2015-08-30 13:55:00,88.5,80.0,30.02,SSW,203,0.0,3.0,76,0.00,,,0.91,Wunderground v.1.15,2015-08-30 17:55:00,
2015-08-30 14:00:00,88.3,79.8,30.03,SW,236,1.0,2.0,76,0.00,,,0.91,Wunderground v.1.15,2015-08-30 18:00:00,
2015-08-30 14:05:00,88.1,80.0,30.03,East,79,0.0,2.0,77,0.00,,,0.91,Wunderground v.1.15,2015-08-30 18:05:00,
2015-08-30 14:10:00,88.1,80.0,30.03,WSW,250,1.0,2.0,77,0.00,,,0.91,Wunderground v.1.15,2015-08-30 18:10:00,
2015-08-30 14:15:00,88.1,80.0,30.03,West,269,0.0,2.0,77,0.00,,,0.91,Wunderground v.1.15,2015-08-30 18:15:00,
2015-08-30 14:20:00,87.3,80.0,30.03,NE,41,0.0,4.0,79,0.00,,,0.91,Wunderground v.1.15,2015-08-30 18:20:00,
2015-08-30 14:25:00,86.1,79.6,30.02,NE,44,2.0,4.0,81,0.00,,,0.91,Wunderground v.1.15,2015-08-30 18:25:00,
2015-08-30 14:30:00,85.3,79.9,30.02,ENE,60,1.0,4.0,84,0.00,,,0.91,Wunderground v.1.15,2015-08-30 18:30:00,
2015-08-30 14:35:00,85.0,80.0,30.02,NE,49,2.0,6.0,85,0.00,,,0.91,Wunderground v.1.15,2015-08-30 18:35:00,
2015-08-30 14:40:00,84.8,79.4,30.02,SSE,160,2.0,3.0,84,0.00,,,0.91,Wunderground v.1.15,2015-08-30 18:40:00,
2015-08-30 14:45:00,84.7,79.7,30.02,East,95,0.0,5.0,85,0.00,,,0.91,Wunderground v.1.15,2015-08-30 18:45:00,
2015-08-30 14:50:00,84.1,79.5,30.02,SSE,155,0.0,1.0,86,0.00,,,0.91,Wunderground v.1.15,2015-08-30 18:50:00,
2015-08-30 14:56:00,83.6,79.0,30.02,SSW,195,0.0,1.0,86,0.00,,,0.91,Wunderground v.1.15,2015-08-30 18:56:00,
2015-08-30 15:01:00,83.2,78.9,30.02,ENE,72,0.0,2.0,87,0.00,,,0.91,Wunderground v.1.15,2015-08-30 19:01:00,
2015-08-30 15:06:00,82.8,78.9,30.01,SSW,213,1.0,5.0,88,0.00,,,0.91,Wunderground v.1.15,2015-08-30 19:06:00,
2015-08-30 15:11:00,82.7,78.8,30.01,ESE,108,2.0,3.0,88,0.00,,,0.91,Wunderground v.1.15,2015-08-30 19:11:00,
2015-08-30 15:18:00,82.6,79.0,30.00,West,262,0.0,1.0,89,0.00,,,0.91,Wunderground v.1.15,2015-08-30 19:18:00,
2015-08-30 15:23:00,82.6,78.7,30.01,NNW,338,0.0,6.0,88,0.00,,,0.91,Wunderground v.1.15,2015-08-30 19:23:00,
2015-08-30 15:35:00,81.7,78.0,30.02,SW,221,1.0,6.0,87,0.00,,,0.91,weatherlink.com 1.10,2015-08-30 19:35:00,
2015-08-30 15:47:00,80.2,76.7,30.03,WSW,257,0.0,0.0,89,0.00,,,0.91,Wunderground v.1.15,2015-08-30 19:47:00,
2015-08-30 15:54:00,79.5,76.3,30.04,SW,233,2.0,2.0,90,0.00,,,0.91,Wunderground v.1.15,2015-08-30 19:54:00,
2015-08-30 15:59:00,79.1,76.2,30.03,WSW,245,0.0,6.0,91,0.00,,,0.91,Wunderground v.1.15,2015-08-30 19:59:00,
2015-08-30 16:04:00,78.7,76.2,30.02,West,268,1.0,3.0,92,0.00,,,0.91,Wunderground v.1.15,2015-08-30 20:04:00,